Home   Weather   Delta   Past weeks

Flag for Canada Past Weather in Delta, British Columbia, Canada — Yesterday and Last 2 Weeks

Now
52 °F

Passing clouds.


Feels Like: 51 °F
Forecast: 54 / 70 °F
Wind: 5 mph from Northwest

Location: Vancouver International Airport

Current Time: Sep 26, 2016 at 7:09:09 AM

Latest Report: Sep 26, 2016 at 6:00 AM


Visibility: 20 mi

Pressure: 30.16 "Hg

Humidity: 100%

Dew Point: 52 °F

Location of DeltaLocation

Past Weather in Delta — Graph

°F

Delta Temperature Yesterday

Maximum temperature yesterday: 66 °F (at 3:00 PM)
Minimum temperature yesterday: 55 °F (at 1:00 AM)
Average temperature yesterday: 59 °F

High & Low Weather Summary for the Past Weeks

 TemperatureHumidityPressure
High68 °F (Sep 16, 12:00 PM)100% (Sep 17, 9:00 AM)30.43 "Hg (Sep 17, 9:00 AM)
Low46 °F (Sep 12, 7:00 AM)52% (Sep 22, 5:00 PM)29.80 "Hg (Sep 17, 11:00 AM)
Average58 °F82%30.09 "Hg
* Reported Sep 11 5:00 AM — Sep 26 5:00 AM, Delta, Weather by CustomWeather, © 2016

Note: Actual official high and low records may vary slightly from our data, if they occured in-between our weather recording intervals... More about our weather records

Advertising

Delta Weather History for the Previous 24 Hours

Scroll right to see more
 ConditionsComfort  
Time TempWeatherWind HumidityBarometerVisibility
5:00 AM
Mon, Sep 26
54 °FPassing clouds.3 mph100%30.18 "Hg20 mi
4:00 AM52 °FPassing clouds.5 mph94%30.19 "Hg20 mi
3:00 AM55 °FPassing clouds.9 mph94%30.21 "Hg20 mi
2:00 AM55 °FPassing clouds.7 mph94%30.24 "Hg20 mi
1:00 AM54 °FPassing clouds.10 mph100%30.27 "Hg20 mi
12:00 AM50 °FPassing clouds.2 mph94%30.27 "Hg20 mi
11:00 PM
Sun, Sep 25
57 °FPassing clouds.5 mph82%30.29 "Hg20 mi
10:00 PM55 °FPassing clouds.8 mph94%30.30 "Hg20 mi
9:00 PM57 °FPassing clouds.3 mph82%30.31 "Hg20 mi
8:00 PM57 °FPassing clouds.3 mph88%30.32 "Hg30 mi
7:00 PM59 °FBroken clouds.6 mph82%30.32 "Hg30 mi
6:00 PM63 °FBroken clouds.7 mph77%30.34 "Hg30 mi
5:00 PM66 °FBroken clouds.5 mph64%30.36 "Hg30 mi
4:00 PM66 °FBroken clouds.2 mph64%30.38 "Hg25 mi
3:00 PM66 °FBroken clouds.6 mph60%30.40 "Hg25 mi
2:00 PM64 °FBroken clouds.6 mph60%30.42 "Hg25 mi
1:00 PM63 °FMore clouds than sun.6 mph73%30.42 "Hg25 mi
12:00 PM61 °FMostly cloudy.6 mph72%30.43 "Hg20 mi
11:00 AM59 °FMostly cloudy.9 mph77%30.43 "Hg20 mi
10:00 AM59 °FMostly cloudy.8 mph77%30.43 "Hg15 mi
9:00 AM57 °FMore clouds than sun.10 mph77%30.42 "Hg15 mi
8:00 AM57 °FMostly cloudy.5 mph77%30.41 "Hg15 mi
7:00 AM55 °FMostly cloudy.5 mph82%30.40 "Hg15 mi
Weather by CustomWeather, © 2016

See weather overviewHow to use our weather pages